This demonstration page uses our WeatherBlox Daily Observations layout. Learn more.

38.89511, -77.03637

Hourly Observations for January 29, 2015

Temp ( °F °C ) Dew Point ( °F °C ) Humidity (%) Winds ( mph kmh ) Pressure ( in mb ) Visibility ( mi km ) Precip ( " mm )
12:52 am 00:52 Clear 28 -2 7 -14 40 40 NNW 6 9 30.36 1028 10 16.09344 0 0
1:52 am 01:52 Clear 27 -3 9 -13 46 46 N 3 6 30.36 1028 10 16.09344 0 0
2:52 am 02:52 Clear 28 -2 9 -13 43 43 N 5 7 30.33 1027 10 16.09344 0 0
3:52 am 03:52 Clear 27 -3 9 -13 46 46 N 5 7 30.36 1028 10 16.09344 0 0
4:52 am 04:52 Mostly Clear 27 -3 9 -13 46 46 N 6 9 30.33 1027 10 16.09344 0 0
5:52 am 05:52 Mostly Clear 27 -3 9 -13 46 46 Calm 30.36 1028 10 16.09344 0 0
6:52 am 06:52 Partly Cloudy 28 -2 12 -11 51 51 Calm 30.36 1028 10 16.09344 0 0
7:52 am 07:52 Partly Cloudy 28 -2 14 -10 55 55 Calm 30.33 1027 10 16.09344 0 0
8:52 am 08:52 Cloudy 30 -1 12 -11 47 47 Calm 30.33 1027 10 16.09344 0 0
9:52 am 09:52 Cloudy 34 1 7 -14 32 32 Calm 30.33 1027 10 16.09344 0 0
10:52 am 10:52 Cloudy 34 1 12 -11 41 41 S 7 11 30.3 1026 10 16.09344 0 0
11:52 am 11:52 Cloudy 36 2 12 -11 38 38 S 7 11 30.27 1025 10 16.09344 0 0
12:52 pm 12:52 Cloudy 37 3 12 -11 35 35 S 10 17 30.21 1023 10 16.09344 0 0
1:52 pm 13:52 Cloudy 37 3 12 -11 35 35 SSE 13 20 30.15 1021 10 16.09344 0 0
2:52 pm 14:52 Cloudy 37 3 16 -9 41 41 SE 10 17 30.12 1020 10 16.09344 0 0
3:52 pm 15:52 Cloudy with Light Rain 37 3 16 -9 41 41 SSE 12 19 30.12 1020 10 16.09344 0.001 0.001
4:24 pm 16:24 Cloudy with Light Snow 37 3 19 -7 48 48 S 7 11 30.12 1020 7 11.265408 0 0
4:31 pm 16:31 Cloudy with Light Rain 36 2 19 -7 52 52 S 8 13 30.12 1020 7 11.265408 0.01 0.254
4:52 pm 16:52 Cloudy with Light Rain 36 2 21 -6 56 56 SSE 6 9 30.09 1019 7 11.265408 0.03 0.762
5:29 pm 17:29 Cloudy with Light Rain 36 2 25 -4 65 65 SE 5 7 30.09 1019 10 16.09344 0.02 0.508
5:52 pm 17:52 Cloudy with Light Rain 36 2 25 -4 65 65 SSE 3 6 30.09 1019 10 16.09344 0.02 0.508
6:52 pm 18:52 Cloudy 36 2 25 -4 65 65 SSE 6 9 30.06 1018 10 16.09344 0.001 0.001
7:52 pm 19:52 Cloudy 36 2 25 -4 65 65 S 8 13 30.03 1017 10 16.09344 0 0
8:52 pm 20:52 Cloudy 36 2 27 -3 70 70 S 6 9 30 1016 10 16.09344 0 0
9:12 pm 21:12 Cloudy 37 3 25 -4 60 60 S 7 11 30 1016 10 16.09344 0 0
9:52 pm 21:52 Cloudy 39 4 21 -6 48 48 S 13 20 29.97 1015 10 16.09344 0 0
10:52 pm 22:52 Cloudy 39 4 21 -6 48 48 SSW 9 15 29.94 1014 10 16.09344 0 0
11:52 pm 23:52 Cloudy 39 4 23 -5 52 52 S 7 11 29.91 1013 10 16.09344 0 0

Powered by AerisWeather